Starlink 31581

operational
NORAD ID: 59474 Int'l Des: 2024-068 Owner: SPXS Country: US Constellation: starlink
LEOCIRCULAR

Über Starlink 31581

Beschreibung wird geladen...

Live-Position

3D-Globus wird geladen...

Nächste Überflüge

Höhenverlauf

Altitude vs Time

uPlot chart will show altitude changes over time

Zweizeiliger Elementsatz

1 59474U 24068V 25303.62828003 .00003219 00000-0 12645-3 0 9997
2 59474 42.9987 41.9198 0000740 281.0256 79.0513 15.27573715 88719
Epoch: 30. Okt. 2025 • Age: 27 hours

Aktueller Status

Höhe 484.2 km
Geschwindigkeit 7.63 km/s
Subsatellitenpunkt 30.79°N, 139.19°W
Startdatum 10. Apr. 2024
Alter 1.5 years
Typ internet

Technische Details

Klassifizierung Payload
Masse 730.00 kg
Trockenmasse 700.00 kg
Gesamtmasse 730.00 kg
Länge 0.30 m
Durchmesser 4.10 m
Spannweite 29.00 m
Form Box + pan
Hersteller SPXS
Bus-Typ Starlink V2M
Phasenstatus In Orbit
Besitzer/Staat SPXS/US

Große Konstellationen

Loading constellations...